Regional Weather Roundup
Issued by NWS

Home | Current Version | Previous Version | Text Only | Print | Product List | Glossary On
Versions: 1 2 3 4 5 6 7 8 9 10 11 12 13 14 15 16 17 18 19 20 21 22 23 24 25 26 27 28 29 30 31 32 33 34 35 36 37 38 39 40 41 42 43 44 45 46 47 48 49 50
000
ASPQ40 PGUM 020914
RWRPQ
WEATHER ROUNDUP FOR THE MARIANAS AND MICRONESIA
NATIONAL WEATHER SERVICE TIYAN GU
700 PM CHST THU JUL 02 2015

GUZ001>004-021000-
MARIANA ISLANDS-

CITY           SKY/WX    TMP DP  RH WIND       PRES   REMARKS
GUAM AIRPORT   PTCLDY    82  79  89 N12       29.75R HX  93
ANDERSEN AFB   PTCLDY    82  77  83 N10       29.76R HX  91
ROTA AIRPORT   NOT AVBL
TINIAN AP      NOT AVBL
SAIPAN AP      PTCLDY    84  75  74 NE16      29.74R HX  92

$$

PMZ161-021000-
REPUBLIC OF PALAU-

CITY           SKY/WX    TMP DP  RH WIND       PRES   REMARKS
KOROR AP       CLOUDY    82  75  78 SW15G21   29.78S
KOROR WSO      CLOUDY    84  75  74 W12       29.79R HX  92

$$

PMZ171>174-021000-
FEDERATED STATES OF MICRONESIA-

CITY           SKY/WX    TMP DP  RH WIND       PRES   REMARKS
YAP AIRPORT    LGT RAIN  79  77  94 W12       29.79R
CHUUK AP       CLOUDY    81  77  89 SW12      29.62R
POHNPEI AP     NOT AVBL
POHNPEI WSO    CLOUDY    81  73  78 SW5       29.77R
KOSRAE AP      NOT AVBL

$$

PMZ181-021000-
REPUBLIC OF THE MARSHALL ISLANDS-

CITY           SKY/WX    TMP DP  RH WIND       PRES   REMARKS
KWAJALEIN AP   PTCLDY    82  73  74 NE8       29.80R
MAJURO AP      NOT AVBL
MAJURO WSO     CLOUDY    79  77  94 NW10      29.67R

$$




USA.gov is the U.S. government's official web portal to all federal, state and local government web resources and services.